Location: Dumpton Point
(51.3500°N, 1.4433°E)
Time: 04:47:21
(UTC+00:00)

Altair - Pass Details

Date: 06 October 2022
Orbit: 1501 x 1682 km, 47.2° (Epoch: 04 December)

Event Time Altitude Azimuth Distance (km) Brightness Sun altitude
Rises 09:27:12 0° 284° (WNW) 4,874 9.7 26.5°
Reaches altitude 10° 09:30:27 10° 279° (W) 3,905 9.3 26.8°
Maximum altitude 09:39:51 47° 210° (SSW) 2,113 8.9 27.7°
Drops below altitude 10° 09:49:21 10° 141° (SE) 3,937 11.3 28.5°
Sets 09:52:39 0° 136° (SE) 4,917 11.3 28.8°
